^^
Station Historical Data
Daily Summary for January 6, 2018 Units:  English    Metric   Both
« Previous Day
Next Day »
Daily Weekly Monthly Yearly Custom
  High: Low: Average:
Temperature: TemperatureF °F 66.0 °F 81.3 °F
Dew Point: DewpointF °F 33.6 °F 40.7 °F
Humidity: Humidity% 13% 25%
Wind Speed: WindSpeedMPHmph 0.0mph 1.8mph
Wind Gust: WindSpeedGustMPHmph - -
Wind- - South
Pressure: PressureIn in 30.02 in -
Precipitation: 0.00 in    
Historical Graphs
 
 
Tabular Data for January 6, 2018
Time Temperature Dew Point Pressure Wind Wind Speed Wind Gust Humidity Rainfall Rate (Hourly) solar Conditions
TemperatureF °F DewpointF °F PressureIn in Calm     Humidity% HourlyPrecipIn in SolarRadiationWatts/m^2 W/m2 Conditions
00:04 77.7 °F 43.0 °F 30.16 in SSW 4.0 mph 18.0 mph 29% 0.00 in 0.0 W/m2
00:09 77.5 °F 42.8 °F 30.16 in ESE 6.9 mph 11.0 mph 29% 0.00 in 0.0 W/m2
00:14 77.4 °F 42.6 °F 30.16 in ESE 6.9 mph 11.0 mph 29% 0.00 in 0.0 W/m2
00:20 77.2 °F 43.3 °F 30.16 in ESE 8.9 mph 15.0 mph 30% 0.00 in 0.0 W/m2
00:22 77.2 °F 43.3 °F 30.16 in SE 11.0 mph 13.0 mph 30% 0.00 in 0.0 W/m2
00:27 77.2 °F 43.3 °F 30.16 in SSE 4.0 mph 9.0 mph 30% 0.00 in 0.0 W/m2
00:30 77.0 °F 43.2 °F 30.16 in South 0.9 mph 14.0 mph 30% 0.00 in 0.0 W/m2
00:36 76.8 °F 43.0 °F 30.16 in SE 8.9 mph 11.0 mph 30% 0.00 in 0.0 W/m2
00:42 76.6 °F 43.7 °F 30.15 in SSE 6.0 mph 8.0 mph 31% 0.00 in 0.0 W/m2
00:48 76.6 °F 43.7 °F 30.15 in ESE 8.9 mph 10.0 mph 31% 0.00 in 0.0 W/m2
00:53 76.5 °F 43.5 °F 30.15 in SSE 6.9 mph 9.0 mph 31% 0.00 in 0.0 W/m2
00:58 76.3 °F 43.3 °F 30.15 in SSE 2.9 mph 9.0 mph 31% 0.00 in 0.0 W/m2
00:59 76.3 °F 43.3 °F 30.15 in ESE 2.0 mph 11.0 mph 31% 0.00 in 0.0 W/m2
01:03 75.9 °F 43.9 °F 30.15 in ESE 4.0 mph 8.0 mph 32% 0.00 in 0.0 W/m2
01:06 75.9 °F 43.9 °F 30.14 in SE 2.0 mph 11.0 mph 32% 0.00 in 0.0 W/m2
01:11 75.9 °F 43.9 °F 30.14 in South 6.0 mph 10.0 mph 32% 0.00 in 0.0 W/m2
01:17 75.9 °F 43.9 °F 30.14 in SE 6.9 mph 10.0 mph 32% 0.00 in 0.0 W/m2
01:29 75.9 °F 43.9 °F 30.14 in SE 0.9 mph 10.0 mph 32% 0.00 in 0.0 W/m2
01:34 75.7 °F 43.7 °F 30.14 in SSW 4.0 mph 10.0 mph 32% 0.00 in 0.0 W/m2
01:41 75.7 °F 43.7 °F 30.14 in SSE 6.0 mph 9.0 mph 32% 0.00 in 0.0 W/m2
01:47 75.9 °F 43.9 °F 30.14 in SSE 6.0 mph 10.0 mph 32% 0.00 in 0.0 W/m2
01:52 75.9 °F 43.2 °F 30.13 in SE 2.0 mph 10.0 mph 31% 0.00 in 0.0 W/m2
01:57 75.9 °F 43.9 °F 30.13 in SE 2.0 mph 9.0 mph 32% 0.00 in 0.0 W/m2
02:04 75.9 °F 43.2 °F 30.13 in ESE 6.0 mph 12.0 mph 31% 0.00 in 0.0 W/m2
02:12 75.9 °F 43.9 °F 30.13 in SE 4.0 mph 9.0 mph 32% 0.00 in 0.0 W/m2
02:17 75.9 °F 43.9 °F 30.13 in Calm   7.0 mph 32% 0.00 in 0.0 W/m2
02:22 75.7 °F 43.7 °F 30.13 in Calm   4.0 mph 32% 0.00 in 0.0 W/m2
02:28 75.7 °F 43.7 °F 30.13 in SSE 2.9 mph 9.0 mph 32% 0.00 in 0.0 W/m2
02:30 75.7 °F 43.7 °F 30.13 in SSE 6.9 mph 8.0 mph 32% 0.00 in 0.0 W/m2
02:34 75.6 °F 43.7 °F 30.13 in SE 2.9 mph 4.0 mph 32% 0.00 in 0.0 W/m2
02:39 75.6 °F 43.7 °F 30.12 in SE 4.0 mph 7.0 mph 32% 0.00 in 0.0 W/m2
02:44 75.4 °F 43.5 °F 30.12 in ESE 2.0 mph 5.0 mph 32% 0.00 in 0.0 W/m2
02:51 75.2 °F 44.1 °F 30.12 in SE 0.9 mph 5.0 mph 33% 0.00 in 0.0 W/m2
02:56 75.0 °F 43.9 °F 30.12 in SE 2.9 mph 6.0 mph 33% 0.00 in 0.0 W/m2
03:00 74.8 °F 43.9 °F 30.12 in Calm   5.0 mph 33% 0.00 in 0.0 W/m2
03:06 74.8 °F 43.9 °F 30.12 in South 0.9 mph 4.0 mph 33% 0.00 in 0.0 W/m2
03:13 74.7 °F 43.7 °F 30.12 in SSE 2.9 mph 6.0 mph 33% 0.00 in 0.0 W/m2
03:16 74.7 °F 43.7 °F 30.12 in Calm   7.0 mph 33% 0.00 in 0.0 W/m2
03:21 74.5 °F 43.5 °F 30.12 in South 2.0 mph 5.0 mph 33% 0.00 in 0.0 W/m2
03:25 74.5 °F 44.2 °F 30.12 in SSE 2.9 mph 5.0 mph 34% 0.00 in 0.0 W/m2
03:31 74.1 °F 43.9 °F 30.12 in SSE 2.0 mph 3.0 mph 34% 0.00 in 0.0 W/m2
03:37 73.9 °F 43.9 °F 30.12 in SE 2.9 mph 3.0 mph 34% 0.00 in 0.0 W/m2
03:42 73.8 °F 43.7 °F 30.12 in SE 2.9 mph 5.0 mph 34% 0.00 in 0.0 W/m2
03:47 73.8 °F 43.7 °F 30.11 in SE 0.9 mph 5.0 mph 34% 0.00 in 0.0 W/m2
03:54 73.6 °F 43.5 °F 30.11 in South 4.9 mph 5.0 mph 34% 0.00 in 0.0 W/m2
04:00 73.6 °F 44.2 °F 30.11 in ESE 2.0 mph 5.0 mph 35% 0.00 in 0.0 W/m2
04:05 73.6 °F 43.5 °F 30.11 in SE 0.9 mph 4.0 mph 34% 0.00 in 0.0 W/m2
04:11 73.6 °F 44.2 °F 30.11 in SE 0.9 mph 4.0 mph 35% 0.00 in 0.0 W/m2
04:17 73.4 °F 44.1 °F 30.11 in SE 0.9 mph 3.0 mph 35% 0.00 in 0.0 W/m2
04:21 73.2 °F 43.9 °F 30.11 in East 0.9 mph 4.0 mph 35% 0.00 in 0.0 W/m2
04:26 73.0 °F 43.7 °F 30.11 in ESE 2.0 mph 6.0 mph 35% 0.00 in 0.0 W/m2
04:32 72.9 °F 43.5 °F 30.10 in Calm   1.0 mph 35% 0.00 in 0.0 W/m2
04:38 72.3 °F 43.9 °F 30.10 in Calm     36% 0.00 in 0.0 W/m2
04:47 71.8 °F 44.1 °F 30.10 in Calm     37% 0.00 in 0.0 W/m2
04:52 71.4 °F 43.7 °F 30.11 in Calm     37% 0.00 in 0.0 W/m2
04:57 71.1 °F 43.5 °F 30.11 in Calm     37% 0.00 in 0.0 W/m2
05:02 70.7 °F 43.9 °F 30.10 in Calm     38% 0.00 in 0.0 W/m2
05:07 70.3 °F 43.5 °F 30.11 in Calm     38% 0.00 in 0.0 W/m2
05:12 70.0 °F 43.9 °F 30.11 in Calm   1.0 mph 39% 0.00 in 0.0 W/m2
05:17 69.6 °F 44.2 °F 30.11 in Calm     40% 0.00 in 0.0 W/m2
05:22 69.3 °F 43.9 °F 30.11 in Calm   1.0 mph 40% 0.00 in 0.0 W/m2
05:28 68.7 °F 44.1 °F 30.11 in Calm   1.0 mph 41% 0.00 in 0.0 W/m2
05:34 68.5 °F 44.6 °F 30.11 in Calm     42% 0.00 in 0.0 W/m2
05:39 68.2 °F 43.5 °F 30.11 in Calm   1.0 mph 41% 0.00 in 0.0 W/m2
05:44 67.8 °F 43.3 °F 30.11 in East 0.9 mph 3.0 mph 41% 0.00 in 0.0 W/m2
05:49 67.6 °F 43.7 °F 30.12 in Calm   3.0 mph 42% 0.00 in 0.0 W/m2
05:50 67.6 °F 43.7 °F 30.12 in Calm   1.0 mph 42% 0.00 in 0.0 W/m2
05:56 67.5 °F 43.5 °F 30.11 in Calm   1.0 mph 42% 0.00 in 0.0 W/m2
06:01 67.3 °F 44.1 °F 30.12 in Calm   2.0 mph 43% 0.00 in 0.0 W/m2
06:08 66.9 °F 43.2 °F 30.12 in Calm   3.0 mph 42% 0.00 in 0.0 W/m2
06:13 66.9 °F 43.7 °F 30.12 in Calm   1.0 mph 43% 0.00 in 0.0 W/m2
06:18 66.7 °F 43.5 °F 30.12 in Calm     43% 0.00 in 5.0 W/m2
06:19 66.7 °F 43.5 °F 30.12 in ENE 0.9 mph 1.0 mph 43% 0.00 in 5.0 W/m2
06:24 66.6 °F 43.3 °F 30.12 in East 0.9 mph 2.0 mph 43% 0.00 in 7.0 W/m2
06:30 66.6 °F 44.1 °F 30.13 in Calm   3.0 mph 44% 0.00 in 11.0 W/m2
06:36 66.4 °F 43.9 °F 30.12 in Calm   2.0 mph 44% 0.00 in 12.0 W/m2
06:42 66.4 °F 44.4 °F 30.13 in Calm     45% 0.00 in 16.0 W/m2
06:48 66.0 °F 44.1 °F 30.13 in Calm   1.0 mph 45% 0.00 in 18.0 W/m2
06:51 66.0 °F 44.1 °F 30.13 in East 0.9 mph 2.0 mph 45% 0.00 in 19.0 W/m2
06:57 66.0 °F 44.1 °F 30.13 in Calm   3.0 mph 45% 0.00 in 21.0 W/m2
07:02 66.4 °F 45.0 °F 30.13 in Calm   1.0 mph 46% 0.00 in 23.0 W/m2
07:07 66.4 °F 45.0 °F 30.13 in Calm   3.0 mph 46% 0.00 in 25.0 W/m2
07:12 66.6 °F 45.1 °F 30.14 in Calm   2.0 mph 46% 0.00 in 26.0 W/m2
07:19 66.7 °F 45.9 °F 30.13 in Calm   3.0 mph 47% 0.00 in 28.0 W/m2
07:24 67.1 °F 45.7 °F 30.14 in Calm   3.0 mph 46% 0.00 in 28.0 W/m2
07:35 67.8 °F 45.7 °F 30.14 in Calm   1.0 mph 45% 0.00 in 32.0 W/m2
07:40 68.4 °F 46.2 °F 30.14 in Calm   2.0 mph 45% 0.00 in 33.0 W/m2
07:41 68.4 °F 45.7 °F 30.14 in Calm   2.0 mph 44% 0.00 in 33.0 W/m2
07:45 68.7 °F 45.9 °F 30.14 in Calm   1.0 mph 44% 0.00 in 44.0 W/m2
07:50 69.4 °F 46.0 °F 30.14 in Calm   1.0 mph 43% 0.00 in 144.0 W/m2
07:55 70.2 °F 46.0 °F 30.14 in Calm   1.0 mph 42% 0.00 in 339.0 W/m2
07:56 70.2 °F 46.0 °F 30.14 in Calm     42% 0.00 in 348.0 W/m2
08:02 71.1 °F 46.2 °F 30.14 in Calm     41% 0.00 in 373.0 W/m2
08:07 72.3 °F 46.6 °F 30.14 in Calm     40% 0.00 in 394.0 W/m2
08:12 73.6 °F 45.0 °F 30.14 in Calm   1.0 mph 36% 0.00 in 413.0 W/m2
08:18 75.4 °F 45.9 °F 30.14 in Calm   2.0 mph 35% 0.00 in 438.0 W/m2
08:23 76.3 °F 45.9 °F 30.14 in Calm     34% 0.00 in 459.0 W/m2
08:30 77.7 °F 41.0 °F 30.14 in Calm   1.0 mph 27% 0.00 in 490.0 W/m2
08:35 79.0 °F 42.1 °F 30.14 in SW 0.9 mph 2.0 mph 27% 0.00 in 508.0 W/m2
08:40 79.3 °F 42.4 °F 30.14 in Calm   2.0 mph 27% 0.00 in 527.0 W/m2
08:45 79.9 °F 41.0 °F 30.14 in Calm   1.0 mph 25% 0.00 in 545.0 W/m2
08:47 80.1 °F 41.0 °F 30.14 in Calm     25% 0.00 in 552.0 W/m2
08:51 80.4 °F 41.4 °F 30.14 in NW 0.9 mph 1.0 mph 25% 0.00 in 559.0 W/m2
08:56 81.3 °F 39.9 °F 30.14 in Calm   3.0 mph 23% 0.00 in 584.0 W/m2
08:58 81.9 °F 40.5 °F 30.15 in Calm   1.0 mph 23% 0.00 in 589.0 W/m2
09:02 82.4 °F 41.9 °F 30.14 in West 0.9 mph 3.0 mph 24% 0.00 in 605.0 W/m2
09:07 82.8 °F 41.2 °F 30.14 in Calm   1.0 mph 23% 0.00 in 615.0 W/m2
09:12 83.3 °F 40.5 °F 30.14 in Calm   3.0 mph 22% 0.00 in 638.0 W/m2
09:17 84.0 °F 39.9 °F 30.14 in NNE 4.0 mph 4.0 mph 21% 0.00 in 657.0 W/m2
09:23 84.7 °F 39.2 °F 30.14 in NW 0.9 mph 5.0 mph 20% 0.00 in 682.0 W/m2
09:28 84.9 °F 39.4 °F 30.14 in Calm   3.0 mph 20% 0.00 in 700.0 W/m2
09:34 85.5 °F 39.7 °F 30.14 in NNE 6.0 mph 7.0 mph 20% 0.00 in 719.0 W/m2
09:42 85.8 °F 37.4 °F 30.14 in NNW 6.0 mph 6.0 mph 18% 0.00 in 742.0 W/m2
09:47 86.2 °F 37.8 °F 30.14 in WSW 0.9 mph 3.0 mph 18% 0.00 in 758.0 W/m2
09:52 86.0 °F 37.6 °F 30.14 in NNW 0.9 mph 3.0 mph 18% 0.00 in 782.0 W/m2
09:57 86.2 °F 37.8 °F 30.14 in NNE 4.0 mph 6.0 mph 18% 0.00 in 457.0 W/m2
10:02 86.4 °F 37.9 °F 30.14 in WNW 4.0 mph 8.0 mph 18% 0.00 in 457.0 W/m2
10:04 86.4 °F 39.2 °F 30.15 in NNW 2.9 mph 4.0 mph 19% 0.00 in 299.0 W/m2
10:07 86.4 °F 39.2 °F 30.15 in Calm   1.0 mph 19% 0.00 in 299.0 W/m2
10:17 86.5 °F 39.4 °F 30.15 in NE 0.9 mph 3.0 mph 19% 0.00 in 197.0 W/m2
10:24 86.7 °F 39.6 °F 30.14 in WNW 2.0 mph 4.0 mph 19% 0.00 in 870.0 W/m2
10:29 87.3 °F 38.7 °F 30.14 in NNW 2.0 mph 4.0 mph 18% 0.00 in 926.0 W/m2
10:34 87.6 °F 37.4 °F 30.15 in Calm   4.0 mph 17% 0.00 in 719.0 W/m2
10:39 88.0 °F 39.2 °F 30.15 in South 4.0 mph 5.0 mph 18% 0.00 in 940.0 W/m2
10:44 87.6 °F 38.8 °F 30.14 in NNW 4.9 mph 6.0 mph 18% 0.00 in 1013.0 W/m2
10:49 88.0 °F 39.2 °F 30.14 in Calm   4.0 mph 18% 0.00 in 976.0 W/m2
10:54 88.3 °F 37.9 °F 30.14 in NNE 4.9 mph 8.0 mph 17% 0.00 in 956.0 W/m2
10:59 88.5 °F 39.6 °F 30.14 in WSW 2.9 mph 4.0 mph 18% 0.00 in 963.0 W/m2
11:04 88.9 °F 38.5 °F 30.14 in WSW 2.0 mph 8.0 mph 17% 0.00 in 972.0 W/m2
11:09 88.3 °F 37.9 °F 30.14 in NNW 4.9 mph 9.0 mph 17% 0.00 in 1005.0 W/m2
11:14 88.9 °F 39.9 °F 30.14 in West 4.9 mph 7.0 mph 18% 0.00 in 1027.0 W/m2
11:20 89.2 °F 37.2 °F 30.14 in ENE 0.9 mph 5.0 mph 16% 0.00 in 1032.0 W/m2
11:25 90.0 °F 37.8 °F 30.13 in NW 0.9 mph 5.0 mph 16% 0.00 in 1028.0 W/m2
11:31 90.5 °F 38.1 °F 30.13 in NNE 2.0 mph 4.0 mph 16% 0.00 in 1063.0 W/m2
11:32 90.7 °F 38.3 °F 30.13 in NNW 2.0 mph 4.0 mph 16% 0.00 in 1067.0 W/m2
11:36 90.9 °F 36.9 °F 30.13 in Calm   5.0 mph 15% 0.00 in 1079.0 W/m2
11:37 90.9 °F 36.9 °F 30.13 in NW 0.9 mph 5.0 mph 15% 0.00 in 1083.0 W/m2
11:42 90.9 °F 36.9 °F 30.13 in South 0.9 mph 4.0 mph 15% 0.00 in 160.0 W/m2
11:47 90.7 °F 36.7 °F 30.12 in Calm   4.0 mph 15% 0.00 in 1120.0 W/m2
11:52 91.0 °F 38.7 °F 30.12 in West 0.9 mph 8.0 mph 16% 0.00 in 1187.0 W/m2
11:57 90.9 °F 36.9 °F 30.12 in NNW 4.0 mph 7.0 mph 15% 0.00 in 229.0 W/m2
12:03 90.7 °F 36.7 °F 30.12 in SSW 6.0 mph 9.0 mph 15% 0.00 in 1174.0 W/m2
12:09 90.5 °F 38.1 °F 30.11 in SE 2.9 mph 6.0 mph 16% 0.00 in 1188.0 W/m2
12:12 90.7 °F 38.3 °F 30.12 in West 2.0 mph 7.0 mph 16% 0.00 in 1209.0 W/m2
12:14 90.7 °F 36.7 °F 30.11 in SW 0.9 mph 3.0 mph 15% 0.00 in 1230.0 W/m2
12:20 90.0 °F 37.8 °F 30.11 in Calm   4.0 mph 16% 0.00 in 1290.0 W/m2
12:26 89.8 °F 37.6 °F 30.11 in NNW 4.9 mph 8.0 mph 16% 0.00 in 230.0 W/m2
12:32 89.4 °F 37.4 °F 30.11 in NW 6.9 mph 9.0 mph 16% 0.00 in 257.0 W/m2
12:37 89.1 °F 37.0 °F 30.11 in North 0.9 mph 7.0 mph 16% 0.00 in 367.0 W/m2
12:42 89.4 °F 37.4 °F 30.11 in NW 2.0 mph 7.0 mph 16% 0.00 in 1378.0 W/m2
12:47 90.0 °F 37.8 °F 30.11 in WSW 0.9 mph 6.0 mph 16% 0.00 in 283.0 W/m2
12:52 89.2 °F 37.2 °F 30.10 in SSW 2.9 mph 7.0 mph 16% 0.00 in 1232.0 W/m2
12:57 89.2 °F 37.2 °F 30.10 in South 0.9 mph 5.0 mph 16% 0.00 in 1238.0 W/m2
13:03 89.4 °F 37.4 °F 30.10 in Calm   5.0 mph 16% 0.00 in 1246.0 W/m2
13:10 91.0 °F 37.0 °F 30.09 in North 0.9 mph 4.0 mph 15% 0.00 in 302.0 W/m2
13:15 91.2 °F 37.0 °F 30.09 in Calm   4.0 mph 15% 0.00 in 262.0 W/m2
13:18 90.9 °F 36.9 °F 30.09 in Calm   3.0 mph 15% 0.00 in 216.0 W/m2
13:20 90.7 °F 36.7 °F 30.09 in Calm   4.0 mph 15% 0.00 in 207.0 W/m2
13:23 90.1 °F 37.9 °F 30.09 in Calm   4.0 mph 16% 0.00 in 195.0 W/m2
13:25 89.8 °F 37.6 °F 30.09 in SE 4.0 mph 5.0 mph 16% 0.00 in 190.0 W/m2
13:30 89.1 °F 37.0 °F 30.09 in SSE 4.0 mph 6.0 mph 16% 0.00 in 171.0 W/m2
13:35 88.5 °F 36.7 °F 30.09 in ESE 2.0 mph 8.0 mph 16% 0.00 in 158.0 W/m2
13:40 88.3 °F 36.5 °F 30.09 in SSE 2.0 mph 4.0 mph 16% 0.00 in 156.0 W/m2
13:46 88.2 °F 37.9 °F 30.09 in Calm   4.0 mph 17% 0.00 in 162.0 W/m2
13:54 88.2 °F 37.9 °F 30.09 in Calm   1.0 mph 17% 0.00 in 183.0 W/m2
13:59 88.2 °F 37.9 °F 30.09 in Calm   2.0 mph 17% 0.00 in 193.0 W/m2
14:04 88.0 °F 37.8 °F 30.08 in SE 0.9 mph 1.0 mph 17% 0.00 in 227.0 W/m2
14:09 88.0 °F 39.2 °F 30.08 in SSW 4.0 mph 5.0 mph 18% 0.00 in 253.0 W/m2
14:14 88.0 °F 37.8 °F 30.08 in Calm   3.0 mph 17% 0.00 in 292.0 W/m2
14:20 88.0 °F 36.1 °F 30.07 in SW 4.0 mph 5.0 mph 16% 0.00 in 418.0 W/m2
14:24 88.2 °F 37.9 °F 30.07 in SW 2.0 mph 4.0 mph 17% 0.00 in 424.0 W/m2
14:26 88.2 °F 37.9 °F 30.07 in South 0.9 mph 3.0 mph 17% 0.00 in 424.0 W/m2
14:31 89.1 °F 37.0 °F 30.07 in Calm   5.0 mph 16% 0.00 in 962.0 W/m2
14:37 90.1 °F 36.3 °F 30.07 in WNW 2.0 mph 3.0 mph 15% 0.00 in 359.0 W/m2
14:43 90.0 °F 37.8 °F 30.07 in SW 4.0 mph 7.0 mph 16% 0.00 in 352.0 W/m2
14:49 89.4 °F 37.4 °F 30.07 in Calm   3.0 mph 16% 0.00 in 360.0 W/m2
14:54 89.4 °F 37.4 °F 30.06 in WNW 0.9 mph 2.0 mph 16% 0.00 in 355.0 W/m2
14:59 89.6 °F 35.8 °F 30.06 in Calm   3.0 mph 15% 0.00 in 323.0 W/m2
15:05 89.8 °F 37.6 °F 30.06 in ENE 0.9 mph 1.0 mph 16% 0.00 in 316.0 W/m2
15:11 90.0 °F 36.1 °F 30.06 in NE 0.9 mph 5.0 mph 15% 0.00 in 339.0 W/m2
15:17 90.0 °F 37.8 °F 30.06 in North 0.9 mph 3.0 mph 16% 0.00 in 425.0 W/m2
15:23 90.7 °F 36.7 °F 30.05 in NE 2.9 mph 6.0 mph 15% 0.00 in 612.0 W/m2
15:28 91.6 °F 35.6 °F 30.05 in NW 2.9 mph 5.0 mph 14% 0.00 in 1121.0 W/m2
15:34 92.5 °F 38.1 °F 30.05 in SSW 2.0 mph 4.0 mph 15% 0.00 in 638.0 W/m2
15:40 93.6 °F 37.2 °F 30.05 in NNW 4.0 mph 4.0 mph 14% 0.00 in 1132.0 W/m2
15:47 94.5 °F 36.0 °F 30.04 in ESE 2.0 mph 6.0 mph 13% 0.00 in 1148.0 W/m2
15:52 94.8 °F 36.3 °F 30.04 in ENE 4.0 mph 9.0 mph 13% 0.00 in 425.0 W/m2
15:59 94.5 °F 36.0 °F 30.04 in North 4.0 mph 4.0 mph 13% 0.00 in 603.0 W/m2
16:04 94.5 °F 36.0 °F 30.04 in Calm   7.0 mph 13% 0.00 in 663.0 W/m2
16:10 95.0 °F 36.5 °F 30.04 in NE 4.0 mph 6.0 mph 13% 0.00 in 311.0 W/m2
16:16 94.5 °F 36.0 °F 30.04 in NNE 4.0 mph 4.0 mph 13% 0.00 in 255.0 W/m2
16:21 93.7 °F 35.4 °F 30.03 in North 4.0 mph 5.0 mph 13% 0.00 in 243.0 W/m2
16:22 93.6 °F 35.4 °F 30.03 in North 4.0 mph 5.0 mph 13% 0.00 in 244.0 W/m2
16:27 92.8 °F 34.7 °F 30.03 in NNE 2.9 mph 5.0 mph 13% 0.00 in 251.0 W/m2
16:32 92.3 °F 34.3 °F 30.03 in NE 0.9 mph 8.0 mph 13% 0.00 in 262.0 W/m2
16:37 91.9 °F 36.0 °F 30.03 in ENE 2.9 mph 4.0 mph 14% 0.00 in 262.0 W/m2
16:44 91.8 °F 35.8 °F 30.03 in Calm   2.0 mph 14% 0.00 in 274.0 W/m2
16:45 91.8 °F 35.8 °F 30.03 in Calm   1.0 mph 14% 0.00 in 278.0 W/m2
16:50 91.8 °F 35.8 °F 30.02 in NW 2.0 mph 3.0 mph 14% 0.00 in 290.0 W/m2
16:56 91.8 °F 34.0 °F 30.02 in Calm   2.0 mph 13% 0.00 in 294.0 W/m2
17:01 91.9 °F 37.8 °F 30.02 in East 0.9 mph 2.0 mph 15% 0.00 in 308.0 W/m2
17:06 91.6 °F 33.8 °F 30.02 in East 2.0 mph 2.0 mph 13% 0.00 in 322.0 W/m2
17:14 91.6 °F 37.4 °F 30.02 in East 0.9 mph 5.0 mph 15% 0.00 in 262.0 W/m2
17:21 91.6 °F 33.8 °F 30.02 in NE 0.9 mph 3.0 mph 13% 0.00 in 206.0 W/m2
17:24 91.6 °F 35.6 °F 30.02 in SE 2.0 mph 4.0 mph 14% 0.00 in 209.0 W/m2
17:26 91.2 °F 35.4 °F 30.02 in Calm   2.0 mph 14% 0.00 in 339.0 W/m2
17:29 91.2 °F 35.4 °F 30.02 in Calm   1.0 mph 14% 0.00 in 471.0 W/m2
17:34 91.4 °F 35.6 °F 30.02 in NNW 2.0 mph 5.0 mph 14% 0.00 in 192.0 W/m2
17:39 91.0 °F 35.2 °F 30.02 in Calm   5.0 mph 14% 0.00 in 169.0 W/m2
17:46 90.7 °F 34.9 °F 30.02 in ESE 2.0 mph 7.0 mph 14% 0.00 in 169.0 W/m2
17:52 90.3 °F 34.7 °F 30.02 in ENE 2.0 mph 4.0 mph 14% 0.00 in 160.0 W/m2
17:58 90.0 °F 34.3 °F 30.02 in ENE 2.0 mph 2.0 mph 14% 0.00 in 153.0 W/m2
18:04 90.0 °F 36.1 °F 30.02 in ESE 2.9 mph 3.0 mph 15% 0.00 in 134.0 W/m2
18:10 90.0 °F 36.1 °F 30.02 in Calm   1.0 mph 15% 0.00 in 116.0 W/m2
18:11 90.0 °F 37.8 °F 30.02 in Calm   1.0 mph 16% 0.00 in 114.0 W/m2
18:15 90.0 °F 34.3 °F 30.02 in Calm   2.0 mph 14% 0.00 in 105.0 W/m2
18:20 89.8 °F 34.2 °F 30.02 in NE 2.0 mph 3.0 mph 14% 0.00 in 95.0 W/m2
18:26 89.4 °F 34.0 °F 30.02 in NE 0.9 mph 3.0 mph 14% 0.00 in 83.0 W/m2
18:31 89.2 °F 35.6 °F 30.02 in North 0.9 mph 1.0 mph 15% 0.00 in 79.0 W/m2
18:36 89.1 °F 33.6 °F 30.02 in Calm   5.0 mph 14% 0.00 in 76.0 W/m2
18:42 88.9 °F 35.2 °F 30.02 in Calm   3.0 mph 15% 0.00 in 67.0 W/m2
18:50 88.3 °F 34.9 °F 30.02 in NE 2.0 mph 4.0 mph 15% 0.00 in 54.0 W/m2
18:56 88.3 °F 34.9 °F 30.02 in NNE 2.0 mph 4.0 mph 15% 0.00 in 54.0 W/m2
19:01 88.0 °F 36.1 °F 30.02 in Calm   1.0 mph 16% 0.00 in 49.0 W/m2
19:07 87.8 °F 36.0 °F 30.02 in North 2.0 mph 3.0 mph 16% 0.00 in 47.0 W/m2
19:12 87.8 °F 34.3 °F 30.03 in Calm   1.0 mph 15% 0.00 in 44.0 W/m2
19:17 87.6 °F 34.3 °F 30.03 in NNW 0.9 mph 2.0 mph 15% 0.00 in 35.0 W/m2
19:25 87.4 °F 35.8 °F 30.03 in Calm   1.0 mph 16% 0.00 in 23.0 W/m2
19:26 87.4 °F 35.8 °F 30.03 in Calm   2.0 mph 16% 0.00 in 21.0 W/m2
19:32 87.1 °F 41.2 °F 30.03 in SW 2.9 mph 5.0 mph 20% 0.00 in 12.0 W/m2
19:37 86.4 °F 43.0 °F 30.04 in SSW 2.9 mph 8.0 mph 22% 0.00 in 5.0 W/m2
19:42 85.6 °F 43.5 °F 30.04 in WSW 4.9 mph 9.0 mph 23% 0.00 in 0.0 W/m2
19:46 85.1 °F 44.2 °F 30.04 in West 6.9 mph 11.0 mph 24% 0.00 in 0.0 W/m2
19:48 84.7 °F 43.9 °F 30.04 in WSW 6.9 mph 10.0 mph 24% 0.00 in 0.0 W/m2
19:54 83.8 °F 44.2 °F 30.04 in South 4.0 mph 14.0 mph 25% 0.00 in 0.0 W/m2
19:59 83.7 °F 44.1 °F 30.04 in West 4.9 mph 9.0 mph 25% 0.00 in 0.0 W/m2
20:05 83.1 °F 43.7 °F 30.04 in WSW 8.1 mph 8.1 mph 25% 0.00 in 0.0 W/m2
20:10 82.9 °F 43.5 °F 30.04 in West 4.9 mph 10.0 mph 25% 0.00 in 0.0 W/m2
20:15 82.8 °F 43.3 °F 30.05 in SW 0.9 mph 8.0 mph 25% 0.00 in 0.0 W/m2
20:20 82.4 °F 43.0 °F 30.05 in SW 0.9 mph 5.0 mph 25% 0.00 in 0.0 W/m2
20:25 82.2 °F 43.9 °F 30.05 in Calm   10.0 mph 26% 0.00 in 0.0 W/m2
20:31 82.0 °F 42.8 °F 30.05 in WSW 2.9 mph 7.0 mph 25% 0.00 in 0.0 W/m2
20:37 81.7 °F 44.4 °F 30.05 in SW 0.9 mph 8.0 mph 27% 0.00 in 0.0 W/m2
20:43 81.3 °F 44.1 °F 30.06 in Calm   5.0 mph 27% 0.00 in 0.0 W/m2
20:49 81.0 °F 44.8 °F 30.06 in Calm   1.0 mph 28% 0.00 in 0.0 W/m2
20:54 80.8 °F 44.6 °F 30.06 in Calm   2.0 mph 28% 0.00 in 0.0 W/m2
20:59 80.4 °F 44.2 °F 30.06 in Calm   3.0 mph 28% 0.00 in 0.0 W/m2
21:04 80.1 °F 44.1 °F 30.06 in South 0.9 mph 4.0 mph 28% 0.00 in 0.0 W/m2
21:09 79.9 °F 43.9 °F 30.07 in WSW 2.9 mph 4.0 mph 28% 0.00 in 0.0 W/m2
21:19 79.7 °F 43.7 °F 30.07 in Calm   1.0 mph 28% 0.00 in 0.0 W/m2
21:25 79.5 °F 44.4 °F 30.07 in Calm   1.0 mph 29% 0.00 in 0.0 W/m2
21:30 79.3 °F 43.3 °F 30.07 in South 2.0 mph 4.0 mph 28% 0.00 in 0.0 W/m2
21:35 79.3 °F 44.2 °F 30.07 in SE 0.9 mph 6.0 mph 29% 0.00 in 0.0 W/m2
21:40 79.2 °F 43.2 °F 30.07 in SSE 2.0 mph 9.0 mph 28% 0.00 in 0.0 W/m2
21:46 78.8 °F 43.0 °F 30.07 in East 2.9 mph 5.0 mph 28% 0.00 in 0.0 W/m2
21:51 78.6 °F 42.8 °F 30.07 in ESE 2.9 mph 3.0 mph 28% 0.00 in 0.0 W/m2
21:56 78.6 °F 42.8 °F 30.08 in SSE 0.9 mph 3.0 mph 28% 0.00 in 0.0 W/m2
22:01 78.6 °F 43.7 °F 30.08 in Calm   4.0 mph 29% 0.00 in 0.0 W/m2
22:08 78.6 °F 43.7 °F 30.08 in South 0.9 mph 2.0 mph 29% 0.00 in 0.0 W/m2
22:13 78.4 °F 43.5 °F 30.08 in Calm   1.0 mph 29% 0.00 in 0.0 W/m2
22:19 78.4 °F 43.5 °F 30.08 in Calm   2.0 mph 29% 0.00 in 0.0 W/m2
22:24 78.4 °F 43.5 °F 30.08 in Calm   6.0 mph 29% 0.00 in 0.0 W/m2
22:30 78.6 °F 43.7 °F 30.09 in SSE 2.9 mph 4.0 mph 29% 0.00 in 0.0 W/m2
22:35 78.6 °F 43.7 °F 30.09 in South 6.9 mph 11.0 mph 29% 0.00 in 0.0 W/m2
22:40 78.6 °F 43.7 °F 30.09 in SE 2.9 mph 6.0 mph 29% 0.00 in 0.0 W/m2
22:45 78.6 °F 43.7 °F 30.09 in SW 2.0 mph 6.0 mph 29% 0.00 in 0.0 W/m2
22:50 78.6 °F 44.6 °F 30.09 in SSW 2.0 mph 6.0 mph 30% 0.00 in 0.0 W/m2
22:54 78.4 °F 44.4 °F 30.10 in WSW 2.9 mph 3.0 mph 30% 0.00 in 0.0 W/m2
23:01 78.3 °F 44.2 °F 30.10 in West 0.9 mph 3.0 mph 30% 0.00 in 0.0 W/m2
23:06 78.1 °F 44.1 °F 30.09 in WNW 4.9 mph 7.0 mph 30% 0.00 in 0.0 W/m2
23:11 77.9 °F 43.2 °F 30.10 in SSW 2.9 mph 7.0 mph 29% 0.00 in 0.0 W/m2
23:16 78.1 °F 44.1 °F 30.10 in SSW 2.0 mph 4.0 mph 30% 0.00 in 0.0 W/m2
23:21 78.1 °F 44.1 °F 30.10 in SSW 0.9 mph 4.0 mph 30% 0.00 in 0.0 W/m2
23:26 78.1 °F 44.1 °F 30.10 in SW 4.0 mph 8.0 mph 30% 0.00 in 0.0 W/m2
23:31 78.1 °F 44.1 °F 30.09 in Calm   5.0 mph 30% 0.00 in 0.0 W/m2
23:36 77.9 °F 44.8 °F 30.09 in South 0.9 mph 6.0 mph 31% 0.00 in 0.0 W/m2
23:41 77.7 °F 44.6 °F 30.09 in SSW 4.0 mph 6.0 mph 31% 0.00 in 0.0 W/m2
23:48 77.5 °F 44.6 °F 30.09 in SSW 0.9 mph 7.0 mph 31% 0.00 in 0.0 W/m2
23:51 77.5 °F 44.6 °F 30.09 in SW 2.9 mph 7.0 mph 31% 0.00 in 0.0 W/m2
23:54 77.5 °F 44.6 °F 30.09 in SSW 2.9 mph 6.0 mph 31% 0.00 in 0.0 W/m2
Olympia, Windhoek, Namibia
Compliments of Weather Underground - 3.25 mb